| time (UTC) | temp F | wind direction | speed knots | gust knots | rain 1hr in | rain 24hr in | rain mn in | humidity % | barometer mb |
| 20260504203209 | 58 | 304 | 3.5 | 0.0 | 0.00 | 0.00 | 0.00 | 67 | 1011.1 |
| 20260504200209 | 59 | 22 | 6.1 | 0.0 | 0.00 | 0.00 | 0.00 | 65 | 1011.0 |
| 20260504193209 | 60 | 12 | 6.1 | 0.0 | 0.00 | 0.00 | 0.00 | 63 | 1010.8 |
| 20260504190209 | 60 | 5 | 7.0 | 0.0 | 0.00 | 0.00 | 0.00 | 61 | 1010.8 |
| 20260504183209 | 61 | 36 | 10.4 | 0.0 | 0.00 | 0.00 | 0.00 | 59 | 1011.1 |
| 20260504180214 | 63 | 273 | 7.0 | 0.0 | 0.00 | 0.00 | 0.00 | 55 | 1011.7 |
| 20260504173209 | 65 | 285 | 8.7 | 0.0 | 0.00 | 0.00 | 0.00 | 49 | 1011.2 |
| 20260504170210 | 67 | 331 | 7.8 | 0.0 | 0.00 | 0.00 | 0.00 | 46 | 1010.9 |
| 20260504160210 | 68 | 275 | 4.3 | 0.0 | 0.00 | 0.00 | 0.00 | 40 | 1010.8 |
| 20260504150210 | 68 | 327 | 7.0 | 0.0 | 0.00 | 0.00 | 0.00 | 42 | 1010.7 |
| 20260504140209 | 69 | 260 | 9.6 | 0.0 | 0.00 | 0.00 | 0.00 | 44 | 1010.9 |
| 20260504130215 | 71 | 124 | 3.5 | 0.0 | 0.00 | 0.00 | 0.00 | 36 | 1011.2 |
| 20260504120210 | 71 | 130 | 9.6 | 0.0 | 0.00 | 0.00 | 0.00 | 32 | 1011.5 |
| 20260504110210 | 69 | 139 | 11.3 | 0.0 | 0.00 | 0.00 | 0.00 | 35 | 1012.1 |
| 20260504100212 | 68 | 42 | 9.6 | 0.0 | 0.00 | 0.00 | 0.00 | 36 | 1012.5 |
| 20260504080210 | 65 | 90 | 5.2 | 0.0 | 0.00 | 0.00 | 0.00 | 51 | 1013.2 |
| 20260504070212 | 59 | 83 | 6.1 | 0.0 | 0.00 | 0.00 | 0.00 | 68 | 1013.5 |
| 20260504060212 | 51 | 91 | 0.9 | 0.0 | 0.00 | 0.00 | 0.00 | 83 | 1013.4 |
| 20260504050210 | 47 | 167 | 2.6 | 0.0 | 0.00 | 0.00 | 0.00 | 83 | 1013.5 |
| 20260504043211 | 47 | 44 | 1.7 | 0.0 | 0.00 | 0.00 | 0.00 | 83 | 1013.5 |
| 20260504040211 | 47 | 342 | 7.8 | 0.0 | 0.00 | 0.00 | 0.00 | 82 | 1013.7 |
| 20260504033211 | 47 | 327 | 1.7 | 0.0 | 0.00 | 0.00 | 0.00 | 80 | 1013.9 |
| 20260504030212 | 49 | 327 | 1.7 | 0.0 | 0.00 | 0.00 | 0.00 | 77 | 1013.9 |
| 20260504023211 | 50 | 327 | 3.5 | 0.0 | 0.00 | 0.00 | 0.00 | 76 | 1013.9 |
| 20260504020212 | 51 | 267 | 1.7 | 0.0 | 0.00 | 0.00 | 0.00 | 76 | 1014.1 |
| 20260504013211 | 51 | 267 | 0.9 | 0.0 | 0.00 | 0.00 | 0.00 | 76 | 1013.9 |
| 20260504010211 | 52 | 283 | 2.6 | 0.0 | 0.00 | 0.00 | 0.00 | 75 | 1014.1 |
| 20260504003210 | 53 | 275 | 3.5 | 0.0 | 0.00 | 0.00 | 0.00 | 74 | 1014.0 |
| 20260504000208 | 53 | 234 | 0.9 | 0.0 | 0.00 | 0.00 | 0.00 | 72 | 1014.2 |
| 20260503233209 | 53 | 234 | 1.7 | 0.0 | 0.00 | 0.00 | 0.00 | 72 | 1014.2 |
| 20260503230209 | 54 | 234 | 1.7 | 0.0 | 0.00 | 0.00 | 0.00 | 72 | 1014.4 |
| 20260503223210 | 54 | 234 | 2.6 | 0.0 | 0.00 | 0.00 | 0.00 | 69 | 1014.5 |
| 20260503213210 | 55 | 234 | 2.6 | 0.0 | 0.00 | 0.00 | 0.00 | 67 | 1014.3 |
| 20260503210211 | 55 | 234 | 3.5 | 0.0 | 0.00 | 0.00 | 0.00 | 66 | 1013.9 |